User: anonymous   Login
Location: Unspecified
(0.0000°N, 0.0000°E)
Time: 08:04:32
(UTC+00:00)
Language:

Isis 2 - Orbit

View from above orbital plane
View from above orbital plane
View from above satellite
View from above satellite

Ground track
Ground track

The orbit data is extracted from the following two-line orbital elements,

1  5104U 71024A   19345.78492071  .00000012  00000-0  10391-4 0  9995
2  5104  88.1631 336.0224 0042183 262.9578 271.8634 12.67841504253511
Epoch (UTC): 11 December 2019 18:50:17
Eccentricity: 0.0042183
inclination: 88.1631°
perigee height: 1358 km
apogee height: 1423 km
right ascension of ascending node: 336.0224°
argument of perigee: 262.9578°
revolutions per day: 12.67841504
mean anomaly at epoch: 271.8634°
orbit number at epoch: 25351

The dashed part of the orbit path shows where the satellite is in the earth's shadow,  

DLR